| time (UTC) | temp C | wind direction | speed KPH | gust KPH | rain 1hr cm | rain 24hr cm | rain mn cm | humidity % | barometer mb |
| 20260504194557 | 19 | 192 | 8.0 | 27.4 | 0.00 | 0.00 | 0.00 | 50 | 1010.2 |
| 20260504193103 | 20 | 174 | 6.4 | 29.0 | 0.00 | 0.00 | 0.00 | 48 | 1010.3 |
| 20260504191550 | 20 | 178 | 4.8 | 17.7 | 0.00 | 0.00 | 0.00 | 48 | 1010.2 |
| 20260504190054 | 20 | 240 | 9.7 | 25.7 | 0.00 | 0.00 | 0.00 | 49 | 1010.4 |
| 20260504184547 | 20 | 181 | 8.0 | 19.3 | 0.00 | 0.00 | 0.00 | 45 | 1010.5 |
| 20260504183056 | 20 | 211 | 4.8 | 19.3 | 0.00 | 0.00 | 0.00 | 47 | 1010.6 |
| 20260504181543 | 20 | 176 | 4.8 | 16.1 | 0.00 | 0.00 | 0.00 | 47 | 1010.9 |
| 20260504180112 | 20 | 215 | 8.0 | 24.1 | 0.00 | 0.00 | 0.00 | 45 | 1011.0 |
| 20260504174541 | 20 | 179 | 6.4 | 27.4 | 0.00 | 0.00 | 0.00 | 44 | 1011.2 |
| 20260504173040 | 19 | 104 | 9.7 | 19.3 | 0.00 | 0.00 | 0.00 | 45 | 1011.1 |
| 20260504171545 | 19 | 179 | 9.7 | 27.4 | 0.00 | 0.00 | 0.00 | 44 | 1011.3 |
| 20260504081512 | 10 | 195 | 3.2 | 11.3 | 0.00 | 0.00 | 0.00 | 57 | 1012.9 |
| 20260504050002 | 7 | 207 | 3.2 | 8.0 | 0.00 | 0.00 | 0.00 | 70 | 1012.3 |
| 20260504044505 | 7 | 188 | 1.6 | 6.4 | 0.00 | 0.00 | 0.00 | 69 | 1012.2 |
| 20260504043001 | 7 | 188 | 1.6 | 6.4 | 0.00 | 0.00 | 0.00 | 68 | 1012.2 |
| 20260504041501 | 7 | 192 | 3.2 | 6.4 | 0.00 | 0.00 | 0.00 | 68 | 1012.2 |
| 20260504040003 | 7 | 190 | 1.6 | 4.8 | 0.00 | 0.00 | 0.00 | 67 | 1012.2 |
| 20260504034617 | 7 | 191 | 1.6 | 6.4 | 0.00 | 0.00 | 0.00 | 65 | 1012.2 |
| 20260504033105 | 7 | 196 | 1.6 | 4.8 | 0.00 | 0.00 | 0.00 | 65 | 1012.0 |
| 20260504031604 | 7 | 197 | 1.6 | 4.8 | 0.00 | 0.00 | 0.00 | 64 | 1012.1 |
| 20260504030058 | 8 | 186 | 1.6 | 6.4 | 0.00 | 0.00 | 0.00 | 58 | 1012.1 |
| 20260504024559 | 7 | 196 | 3.2 | 8.0 | 0.00 | 0.00 | 0.00 | 64 | 1012.0 |
| 20260504023057 | 7 | 283 | 1.6 | 3.2 | 0.00 | 0.00 | 0.00 | 69 | 1012.1 |
| 20260504021601 | 7 | 283 | 0.0 | 4.8 | 0.00 | 0.00 | 0.00 | 67 | 1012.0 |
| 20260504020112 | 7 | 283 | 1.6 | 3.2 | 0.00 | 0.00 | 0.00 | 66 | 1012.0 |
| 20260504014602 | 8 | 283 | 0.0 | 4.8 | 0.00 | 0.00 | 0.00 | 63 | 1011.9 |
| 20260504013104 | 8 | 283 | 1.6 | 3.2 | 0.00 | 0.00 | 0.00 | 62 | 1011.8 |
| 20260504011554 | 8 | 283 | 1.6 | 3.2 | 0.00 | 0.00 | 0.00 | 60 | 1011.6 |
| 20260504010051 | 10 | 283 | 0.0 | 3.2 | 0.00 | 0.00 | 0.00 | 56 | 1011.4 |
| 20260504004550 | 10 | 283 | 1.6 | 4.8 | 0.00 | 0.00 | 0.00 | 53 | 1011.2 |
| 20260504003049 | 11 | 283 | 1.6 | 3.2 | 0.00 | 0.00 | 0.00 | 49 | 1011.0 |
| 20260504001551 | 12 | 283 | 1.6 | 3.2 | 0.00 | 0.00 | 0.00 | 45 | 1010.7 |
| 20260504000052 | 12 | 283 | 1.6 | 3.2 | 0.00 | 0.00 | 0.00 | 40 | 1010.5 |
| 20260503234548 | 13 | 283 | 1.6 | 6.4 | 0.00 | 0.00 | 0.00 | 37 | 1010.3 |
| 20260503233048 | 13 | 280 | 0.0 | 4.8 | 0.00 | 0.00 | 0.00 | 34 | 1010.3 |
| 20260503231547 | 14 | 279 | 1.6 | 9.7 | 0.00 | 0.00 | 0.00 | 34 | 1010.1 |
| 20260503224547 | 15 | 360 | 4.8 | 17.7 | 0.00 | 0.00 | 0.00 | 31 | 1010.1 |
| 20260503223046 | 15 | 319 | 4.8 | 17.7 | 0.00 | 0.00 | 0.00 | 34 | 1009.9 |
| 20260503221544 | 14 | 313 | 8.0 | 17.7 | 0.00 | 0.00 | 0.00 | 36 | 1009.8 |
| 20260503220045 | 15 | 349 | 9.7 | 17.7 | 0.00 | 0.00 | 0.00 | 36 | 1009.9 |
| 20260503214544 | 15 | 342 | 8.0 | 16.1 | 0.00 | 0.00 | 0.00 | 36 | 1009.8 |
| 20260503213041 | 14 | 315 | 6.4 | 16.1 | 0.00 | 0.00 | 0.00 | 36 | 1009.7 |
| 20260503211603 | 14 | 327 | 9.7 | 22.5 | 0.00 | 0.00 | 0.00 | 42 | 1009.8 |
| 20260503210043 | 14 | 321 | 11.3 | 27.4 | 0.00 | 0.00 | 0.00 | 43 | 1009.7 |
| 20260503204542 | 13 | 9 | 11.3 | 17.7 | 0.00 | 0.00 | 0.00 | 43 | 1009.6 |
| 20260503203047 | 13 | 321 | 12.9 | 24.1 | 0.00 | 0.00 | 0.00 | 40 | 1009.7 |
| 20260503201538 | 13 | 314 | 9.7 | 25.7 | 0.00 | 0.00 | 0.00 | 38 | 1009.7 |
| 20260503200052 | 13 | 279 | 6.4 | 25.7 | 0.00 | 0.00 | 0.00 | 42 | 1009.9 |